Regional Weather Roundup
Issued by NWS

Home | Current Version | Previous Version | Graphics & Text | Print | Product List | Glossary Off
Versions: 1 2 3 4 5 6 7 8 9 10 11 12 13 14 15 16 17 18 19 20 21 22 23 24 25 26 27 28 29 30 31 32 33 34 35 36 37 38 39 40 41 42 43 44 45 46 47 48 49 50

000
ASUS43 KTOP 290608
RWRKS

WEATHER ROUNDUP FOR KANSAS
NATIONAL WEATHER SERVICE GOODLAND KS
1200 AM CST SAT NOV 29 2014

NOTE:  "FAIR" INDICATES FEW OR NO CLOUDS BELOW 12,000 FEET WITH NO
SIGNIFICANT WEATHER AND/OR OBSTRUCTIONS TO VISIBILITY.

KSZ001>006-013>018-027>032-041>047-290700-
NORTHWEST KANSAS

CITY           SKY/WX    TMP DP  RH WIND       PRES   REMARKS
GOODLAND       CLOUDY    44  17  33 SW10      29.70F
6HR MIN TEMP:  40; 6HR MAX TEMP:  61;

HAYS           MOCLDY    39  21  48 S3        29.68F
HILL CITY      MOCLDY    35  19  52 NW5       29.68F
6HR MIN TEMP:  35; 6HR MAX TEMP:  59;

RUSSELL        PTCLDY    43  31  62 S10       29.67F
6HR MIN TEMP:  42; 6HR MAX TEMP:  55;

$$

KSZ061>065-074>080-084>089-290700-
SOUTHWEST KANSAS

CITY           SKY/WX    TMP DP  RH WIND       PRES   REMARKS
DODGE CITY     MOCLDY    47  29  49 SW14      29.69F
6HR MIN TEMP:  45; 6HR MAX TEMP:  57;

ELKHART          N/A     56  11  17 W13         N/A
GARDEN CITY    CLOUDY    40  26  57 S6        29.70F
6HR MIN TEMP:  40; 6HR MAX TEMP:  62;

GREAT BEND     MOCLDY    37  27  65 CALM      29.70F
LIBERAL        CLOUDY    48  18  29 W10       29.73F
PRATT          PTCLDY    45  34  65 S6        29.70F
$$

KSZ066>073-081>083-090>101-290700-
SOUTHEAST KANSAS

CITY           SKY/WX    TMP DP  RH WIND       PRES   REMARKS
CHANUTE        CLOUDY    53  46  77 S14       29.79F
6HR MIN TEMP:  52; 6HR MAX TEMP:  55;

COFFEYVILLE    CLOUDY    54  46  74 S13G21    29.80F
6HR MIN TEMP:  54; 6HR MAX TEMP:  56;

HUTCHINSON     MOCLDY    45  37  73 SE8       29.72F
6HR MIN TEMP:  43; 6HR MAX TEMP:  51;

MEDICINE LODGE   N/A     45  38  76 E6        29.70F
NEWTON         CLOUDY    48  37  66 S10       29.75F
PARSONS        CLOUDY    54  47  77 S8        29.81F
6HR MIN TEMP:  52; 6HR MAX TEMP:  55;

WICHITA INTL   MOCLDY    49  40  71 SE9       29.73F
6HR MIN TEMP:  48; 6HR MAX TEMP:  55;

WICHITA JABRA  CLOUDY    48  40  73 S8        29.74F
6HR MIN TEMP:  48; 6HR MAX TEMP:  56;

WICHITA MCCONL CLOUDY    50  44  79 S10       29.74F
WINFIELD       CLOUDY    51  43  74 SE8       29.75F
6HR MIN TEMP:  51; 6HR MAX TEMP:  57;

$$

KSZ007>012-019>026-033>040-048>060-102>105-290700-
NORTHEAST KANSAS

CITY           SKY/WX    TMP DP  RH WIND       PRES   REMARKS
CONCORDIA      CLOUDY    49  35  58 SW8       29.67S
6HR MIN TEMP:  49; 6HR MAX TEMP:  59;

EMPORIA        CLOUDY    47  39  74 S12       29.74F
6HR MIN TEMP:  47; 6HR MAX TEMP:  54;

LAWRENCE       CLOUDY    52  38  58 S9        29.73F
6HR MIN TEMP:  50; 6HR MAX TEMP:  54;

MANHATTAN      CLOUDY    49  38  65 S5        29.70F
6HR MIN TEMP:  48; 6HR MAX TEMP:  55;

MARYSVILLE     CLOUDY    50  36  57 SW12      29.67F
OLATHE IND     CLOUDY    52  40  63 S13       29.74F
6HR MIN TEMP:  49; 6HR MAX TEMP:  53;

OLATHE EXE     CLOUDY    51  40  65 S9        29.74F
6HR MIN TEMP:  51; 6HR MAX TEMP:  54;

SALINA         CLOUDY    47  36  65 S14       29.69F
6HR MIN TEMP:  47; 6HR MAX TEMP:  55;

TOPEKA BILLARD CLOUDY    52  38  58 S6        29.71F
6HR MIN TEMP:  52; 6HR MAX TEMP:  57;

TOPEKA FORBES  CLOUDY    52  38  58 S17       29.70F
6HR MIN TEMP:  52; 6HR MAX TEMP:  57;

$$



USA.gov is the U.S. government's official web portal to all federal, state and local government web resources and services.